SCP
0 0 0 0 0 0 0 0 0 0 0 0 0 0 0 0 0 0 0 0 0 0 0 0 0 0 0 0 0 0 0 0
0 0 0 0 0 0 0 0 0 0 0 0 0 0 0 0 0 0 0 0 0 0 0 0 0 0 0 0 0 0 0 0
0 0 0 0 0 0 0 0 0 0 0 0 0 0 0 0 0 0 0 0 0 0 0 0 0 0 0 0 0 0 0 0
0 0 0 0 0 0 0 0 0 0 0 0 0 0 0 0 0 0 0 0 0 0 0 0 0 0 0 0 0 0 0 0
0 0 0 0 0 0 0 0 0 0 0 0 0 0 0 0 0 0 0 0 0 0 0 0 0 0 0 0 0 0 0 0
0 0 0 0 0 0 0 0 0 0 0 0 0 0 0 0 0 0 0 0 0 0 0 0 0 0 0 0 0 0 0 0
0 0 0 0 0 0 0 0 0 0 0 0 0 0 0 0 0 0 0 0 0 0 0 0 0 0 0 0 0 0 0 0
0 0 0 0 0 0 0 0 0 0 0 0 0 0 0 0 0 0 0 0 0 0 0 0 0 0 0 0 0 0 0 0
0 0 0 0 0 0 0 0 0 0 0 0 0 0 0 0 0 0 0 0 0 0 0 0 0 0 0 0 0 0 0 0
0 0 0 0 0 0 0 0 0 0 0 0 0 0 0 0 0 0 0 0 0 0 0 0 0 0 0 0 0 0 0 0
0 0 0 0 0 0 0 0 0 0 0 0 0 0 0 0 0 0 0 0 0 0 0 0 0 0 0 0 0 0 0 0
0 0 0 0 0 0 0 0 0 0 0 0 0 0 0 0 0 0 0 0 0 0 0 0 0 0 0 0 0 0 0 0
0 0 0 0 0 0 0 0 0 0 0 0 0 0 0 0 0 0 0 0 0 0 0 0 0 0 0 0 0 0 0 0
0 0 0 0 0 0 0 0 0 0 0 0 0 0 0 0 0 0 0 0 0 0 0 0 0 0 0 0 0 0 0 0
0 0 0 0 0 0 0 0 0 0 0 0 0 0 0 0 0 0 0 0 0 0 0 0 0 0 0 0 0 0 0 0
0 0 0 0 0 0 0 0 0 0 0 0 0 0 0 0 0 0 0 0 0 0 0 0 0 0 0 0 0 0 0 0
0 0 0 0 0 0 0 0 0 0 0 0 0 0 0 0 0 0 0 0 0 0 0 0 0 0 0 0 0 0 0 0
0 0 0 0 0 0 0 0 0 0 0 0 0 0 0 0 0 0 0 0 0 0 0 0 0 0 0 0 0 0 0 0
0 0 0 0 0 0 0 0 0 0 0 0 0 0 0 0 0 0 0 0 0 0 0 0 0 0 0 0 0 0 0 0
0 0 0 0 0 0 0 0 0 0 0 0 0 0 0 0 0 0 0 0 0 0 0 0 0 0 0 0 0 0 0 0
Wind_Speed_500mb
46 44 41 41 41 39 38 33 32 34 34 33 35 40 45 45 42 37 37 37 31 31 30 17 23 27 26 26 25 35 35 32
41 38 36 37 35 33 31 30 28 29 30 29 30 34 40 45 39 29 29 28 28 30 31 31 30 27 29 30 28 27 25 25
38 38 38 38 37 35 31 28 28 29 28 30 33 39 45 46 45 29 28 30 28 27 26 29 27 23 22 20 18 18 20 23
40 38 38 39 38 35 32 32 30 29 30 33 36 39 42 45 41 32 30 30 28 26 25 22 20 17 14 13 14 17 22 27
42 40 42 39 36 37 36 36 34 32 30 30 33 37 38 37 35 31 31 30 27 25 24 20 16 13 11 12 17 22 27 30
49 49 46 42 41 39 37 38 36 35 34 34 34 33 33 33 34 34 33 31 26 23 18 14 11 10 12 18 22 24 27 31
53 49 51 49 46 43 43 41 38 36 36 36 36 36 36 36 35 35 32 27 22 18 14 10 11 15 19 23 25 28 32 36
51 52 53 52 49 49 45 42 42 40 40 40 39 39 39 38 36 33 28 24 20 15 13 13 16 18 21 26 30 34 37 40
49 52 53 53 52 48 48 48 46 45 44 44 44 43 41 39 35 30 26 22 17 14 12 14 19 24 27 29 33 35 36 35
46 49 51 53 54 53 52 51 50 50 49 48 46 44 41 37 33 29 26 20 15 12 14 20 26 32 34 32 31 29 28 30
43 46 52 56 58 58 58 56 55 53 50 49 48 44 40 37 33 29 23 17 12 12 20 30 34 31 31 29 26 24 26 27
40 40 47 57 62 61 59 57 53 52 52 51 49 46 42 37 32 26 18 13 17 25 29 30 30 29 26 24 25 27 30 33
30 36 41 52 60 60 58 53 54 55 55 53 49 45 40 34 26 19 17 20 23 28 29 29 27 25 25 26 27 29 32 36
18 25 34 46 55 57 55 57 59 59 57 53 47 42 35 29 23 23 24 28 30 31 28 27 27 28 27 26 28 31 35 40
17 25 35 46 52 51 53 57 59 58 56 51 46 41 36 29 26 29 29 35 32 28 27 27 27 27 27 28 30 35 40 44
21 27 33 41 48 51 53 55 58 57 55 50 44 38 31 31 33 36 35 33 31 29 29 28 27 27 27 32 37 43 47 52
25 28 35 42 47 50 53 54 55 55 51 45 41 36 35 41 42 39 37 33 32 32 31 30 30 30 31 37 42 48 52 53
29 30 37 44 49 55 58 58 55 50 47 45 43 46 48 43 43 41 37 36 34 35 35 35 34 36 37 39 46 51 51 50
31 36 43 49 52 54 57 58 56 54 50 50 49 47 46 45 44 41 40 39 37 37 38 41 39 40 41 44 47 47 49 46
36 43 49 53 54 58 63 63 62 58 57 53 51 50 48 48 47 45 43 41 41 41 43 43 43 43 43 43 45 46 44 44
Wind_Direction_500mb
206 213 218 224 228 227 225 221 223 223 221 220 218 214 215 218 223 233 235 239 242 243 240 240 228 253 258 254 269 269 272 275
204 206 208 212 212 212 210 209 208 208 208 208 206 204 204 207 215 219 227 227 229 232 238 248 248 240 245 250 256 261 269 278
204 206 204 205 205 206 205 205 206 208 206 205 205 205 206 210 220 215 216 220 218 219 222 231 232 228 232 239 251 267 280 290
208 208 208 205 203 205 205 204 203 201 200 202 201 201 205 211 224 209 203 209 208 206 207 210 215 219 231 253 270 286 296 301
212 211 215 211 210 208 205 204 204 201 199 203 201 206 206 200 193 191 196 202 193 193 199 204 214 228 252 282 298 302 302 305
215 215 217 217 215 213 211 210 206 204 202 202 199 196 192 187 184 185 190 194 194 197 202 210 231 262 285 293 296 300 305 307
218 220 223 221 219 215 211 209 205 203 200 195 192 188 188 186 186 189 192 195 197 203 214 235 263 283 295 299 303 310 312 315
223 223 223 222 220 216 212 208 205 201 198 196 193 192 191 190 191 192 194 200 205 216 237 265 284 293 299 307 315 316 316 315
234 230 225 221 218 214 212 209 205 201 200 198 197 196 195 194 195 196 201 209 218 234 260 282 294 304 311 310 309 310 311 315
250 241 232 223 217 214 211 209 206 204 201 200 199 199 199 199 197 202 208 214 228 252 289 304 310 308 299 298 301 307 316 322
247 237 228 224 218 215 212 210 208 205 203 203 202 201 202 202 204 208 213 221 245 277 301 297 284 285 290 294 303 314 317 326
238 235 229 220 215 214 213 213 210 206 205 205 204 204 202 205 206 208 217 234 273 290 281 278 282 286 289 296 304 309 318 330
234 230 224 217 215 214 213 212 209 208 207 205 205 204 204 205 203 214 253 271 273 270 270 273 276 279 285 292 300 311 322 324
239 236 227 218 218 218 215 211 209 206 204 203 203 205 207 205 226 255 256 261 260 262 268 274 278 282 287 294 304 311 315 317
245 235 226 216 215 217 216 211 209 207 205 204 206 208 207 225 245 248 253 255 259 265 267 269 272 279 289 298 305 311 314 315
243 237 225 217 214 213 214 213 209 205 205 206 208 208 229 242 246 249 251 256 262 267 271 271 275 284 296 303 312 315 316 317
251 235 225 222 220 216 212 212 211 210 211 212 214 236 243 243 242 246 249 256 264 271 272 274 282 291 300 307 313 313 314 317
254 244 232 226 223 218 213 207 210 215 218 222 245 243 239 242 243 245 252 258 262 267 274 280 287 291 298 304 310 311 314 315
259 243 235 230 227 220 214 212 214 217 225 242 243 242 243 244 244 250 254 261 266 270 274 279 282 286 294 301 307 308 312 313
245 236 233 230 227 222 216 217 220 226 238 239 242 244 245 246 249 252 256 260 263 267 270 274 277 284 291 299 302 307 306 308
Wind_Speed_850mb
46 44 41 41 41 39 38 33 32 34 34 33 35 40 45 45 42 37 37 37 31 31 30 17 23 27 26 26 25 35 35 32
41 38 36 37 35 33 31 30 28 29 30 29 30 34 40 45 39 29 29 28 28 30 31 31 30 27 29 30 28 27 25 25
38 38 38 38 37 35 31 28 28 29 28 30 33 39 45 46 45 29 28 30 28 27 26 29 27 23 22 20 18 18 20 23
40 38 38 39 38 35 32 32 30 29 30 33 36 39 42 45 41 32 30 30 28 26 25 22 20 17 14 13 14 17 22 27
42 40 42 39 36 37 36 36 34 32 30 30 33 37 38 37 35 31 31 30 27 25 24 20 16 13 11 12 17 22 27 30
49 49 46 42 41 39 37 38 36 35 34 34 34 33 33 33 34 34 33 31 26 23 18 14 11 10 12 18 22 24 27 31
53 49 51 49 46 43 43 41 38 36 36 36 36 36 36 36 35 35 32 27 22 18 14 10 11 15 19 23 25 28 32 36
51 52 53 52 49 49 45 42 42 40 40 40 39 39 39 38 36 33 28 24 20 15 13 13 16 18 21 26 30 34 37 40
49 52 53 53 52 48 48 48 46 45 44 44 44 43 41 39 35 30 26 22 17 14 12 14 19 24 27 29 33 35 36 35
46 49 51 53 54 53 52 51 50 50 49 48 46 44 41 37 33 29 26 20 15 12 14 20 26 32 34 32 31 29 28 30
43 46 52 56 58 58 58 56 55 53 50 49 48 44 40 37 33 29 23 17 12 12 20 30 34 31 31 29 26 24 26 27
40 40 47 57 62 61 59 57 53 52 52 51 49 46 42 37 32 26 18 13 17 25 29 30 30 29 26 24 25 27 30 33
30 36 41 52 60 60 58 53 54 55 55 53 49 45 40 34 26 19 17 20 23 28 29 29 27 25 25 26 27 29 32 36
18 25 34 46 55 57 55 57 59 59 57 53 47 42 35 29 23 23 24 28 30 31 28 27 27 28 27 26 28 31 35 40
17 25 35 46 52 51 53 57 59 58 56 51 46 41 36 29 26 29 29 35 32 28 27 27 27 27 27 28 30 35 40 44
21 27 33 41 48 51 53 55 58 57 55 50 44 38 31 31 33 36 35 33 31 29 29 28 27 27 27 32 37 43 47 52
25 28 35 42 47 50 53 54 55 55 51 45 41 36 35 41 42 39 37 33 32 32 31 30 30 30 31 37 42 48 52 53
29 30 37 44 49 55 58 58 55 50 47 45 43 46 48 43 43 41 37 36 34 35 35 35 34 36 37 39 46 51 51 50
31 36 43 49 52 54 57 58 56 54 50 50 49 47 46 45 44 41 40 39 37 37 38 41 39 40 41 44 47 47 49 46
36 43 49 53 54 58 63 63 62 58 57 53 51 50 48 48 47 45 43 41 41 41 43 43 43 43 43 43 45 46 44 44
Wind_Direction_850mb
206 213 218 224 228 227 225 221 223 223 221 220 218 214 215 218 223 233 235 239 242 243 240 240 228 253 258 254 269 269 272 275
204 206 208 212 212 212 210 209 208 208 208 208 206 204 204 207 215 219 227 227 229 232 238 248 248 240 245 250 256 261 269 278
204 206 204 205 205 206 205 205 206 208 206 205 205 205 206 210 220 215 216 220 218 219 222 231 232 228 232 239 251 267 280 290
208 208 208 205 203 205 205 204 203 201 200 202 201 201 205 211 224 209 203 209 208 206 207 210 215 219 231 253 270 286 296 301
212 211 215 211 210 208 205 204 204 201 199 203 201 206 206 200 193 191 196 202 193 193 199 204 214 228 252 282 298 302 302 305
215 215 217 217 215 213 211 210 206 204 202 202 199 196 192 187 184 185 190 194 194 197 202 210 231 262 285 293 296 300 305 307
218 220 223 221 219 215 211 209 205 203 200 195 192 188 188 186 186 189 192 195 197 203 214 235 263 283 295 299 303 310 312 315
223 223 223 222 220 216 212 208 205 201 198 196 193 192 191 190 191 192 194 200 205 216 237 265 284 293 299 307 315 316 316 315
234 230 225 221 218 214 212 209 205 201 200 198 197 196 195 194 195 196 201 209 218 234 260 282 294 304 311 310 309 310 311 315
250 241 232 223 217 214 211 209 206 204 201 200 199 199 199 199 197 202 208 214 228 252 289 304 310 308 299 298 301 307 316 322
247 237 228 224 218 215 212 210 208 205 203 203 202 201 202 202 204 208 213 221 245 277 301 297 284 285 290 294 303 314 317 326
238 235 229 220 215 214 213 213 210 206 205 205 204 204 202 205 206 208 217 234 273 290 281 278 282 286 289 296 304 309 318 330
234 230 224 217 215 214 213 212 209 208 207 205 205 204 204 205 203 214 253 271 273 270 270 273 276 279 285 292 300 311 322 324
239 236 227 218 218 218 215 211 209 206 204 203 203 205 207 205 226 255 256 261 260 262 268 274 278 282 287 294 304 311 315 317
245 235 226 216 215 217 216 211 209 207 205 204 206 208 207 225 245 248 253 255 259 265 267 269 272 279 289 298 305 311 314 315
243 237 225 217 214 213 214 213 209 205 205 206 208 208 229 242 246 249 251 256 262 267 271 271 275 284 296 303 312 315 316 317
251 235 225 222 220 216 212 212 211 210 211 212 214 236 243 243 242 246 249 256 264 271 272 274 282 291 300 307 313 313 314 317
254 244 232 226 223 218 213 207 210 215 218 222 245 243 239 242 243 245 252 258 262 267 274 280 287 291 298 304 310 311 314 315
259 243 235 230 227 220 214 212 214 217 225 242 243 242 243 244 244 250 254 261 266 270 274 279 282 286 294 301 307 308 312 313
245 236 233 230 227 222 216 217 220 226 238 239 242 244 245 246 249 252 256 260 263 267 270 274 277 284 291 299 302 307 306 308